Location: Waco, TX
(31.5480°N, 97.1670°W)
Time: 13:49:52

ISS - Pass Details

Date: 16 March 2018
Orbit: 403 x 406 km, 51.6° (Epoch: 21 March)

Event Time Altitude Azimuth Distance (km) Brightness Sun altitude
Rises 00:24:36 0° 241° (WSW) 2,313 - -55.6°
Reaches altitude 10° 00:26:46 10° 250° (WSW) 1,456 - -55.9°
Maximum altitude 00:29:49 36° 319° (NW) 659 - -56.2°
Drops below altitude 10° 00:32:53 10° 28° (NNE) 1,463 - -56.5°
Sets 00:35:05 0° 37° (NE) 2,325 - -56.8°
